OPS 4682 DEB, 18967

Orbit data source: Space-Track

OPS 4682 DEB, 18967 is space debris in LEO originally from a launch on Sat, 03 Apr 1965 UTC launched from the Air Force Western Test Range (AFWTR). Debris objects in space refer to the collection of defunct objects orbiting the Earth. Examples of debris include non-operational satellites, rocket bodies, and fragments generated from explosions, collisions, or faulty payload assembly.

Loading next visibility...
Identifier
18967, 1965-027AP
Orbit
LEO
Country
Flag of USUS
Related business
Manufacturer
Unknown
Mission
Spacecraft
Bus & Motor
Unknown
Mass
Unknown
Launch date (UTC)
1965-04-03 (61 years ago)
Launch vehicle
Unknown
Launch site
Air Force Western Test Range (AFWTR)
Object type
Payload
Rocket body
Debris
Shape & HBR
Unknown shape, 0.1 m
Radar Cross Section
Small (<0.1 m²)

Expand to show TLE details & history
Last TLE update: 19 hours ago

TLE from 19 hours ago
0 OPS 4682 DEB
1 18967U 65027AP  26072.06377895  .00000540  00000-0  18714-2 0  9995
2 18967  90.2498   8.2073 0030377  40.2460  81.1955 12.96006550805861
Epoch: 2026-03-13T01:31Z
TLE epoch observation values (Epoch: 2026-03-13T01:31:50.501Z)
Latitude
58.30259°
Longitude
-5.05533°
Altitude
1,284.182 km
Speed
7.221 km/s
True Right ascension
12h 34m 26s
True Declination
58° 09' 33"
Sunlit
Object was in partial shadow at epoch
Visualization orbit readout
Latitude
Unknown
Longitude
Unknown
Altitude
Unknown
Speed
Unknown
Apparent Right ascension
Unknown
Apparent Declination
Unknown
Sunlit
N/A
Visualization observer readout
Local Sidereal Time
01:16:33
Azimuth
Unknown
Elevation
Unknown
Doppler factor
Unknown
Orbital elements
Apogee altitude
1,298.154 km
Perigee altitude
1,251.659 km
Semi-major axis
7,653.043 km
Eccentricity
0.00304
Inclination
90.2498°
RAAN
8.2073°
Arg. of periapsis
40.246°
True anomaly
81.53969°
Mean anomaly
81.1955°
Eccentric anomaly
81.36758°
Mean motion
3.24184 °/min
Orbital period
111.05 mins
BSTAR
0.0018714
Loading maneuver chart data...
Computing Atmospheric mass density...
Loading historical data...
Loading historical data...
Loading historical data...
Loading historical data...
Loading historical data...
Loading historical data...
Loading historical data...

Documentation

Showing up to 5 results
|